Lid_Strength_Index
3 3 3 3 3 3 3 3 3 3 4 4 4 4 4 4 4 4 4 4 4 4 4 3 3 3 2 4 3 -0 -3 -1 1 1 2 3 4 5 7 7 6 8 8 7 6 6 6
3 3 3 3 3 3 3 3 3 3 4 4 4 4 4 4 4 3 4 4 4 4 3 3 2 2 3 6 1 -1 2 4 2 1 3 3 4 3 6 6 8 6 7 7 7 6 6
2 3 3 3 3 3 3 3 4 4 4 4 4 4 4 4 4 4 4 4 4 4 3 3 2 2 3 4 1 1 2 3 1 2 3 2 2 4 4 7 5 6 9 7 7 7 8
2 3 3 3 3 3 3 3 4 4 3 4 4 4 4 4 4 4 4 4 4 3 2 2 2 2 4 2 1 3 2 3 3 3 4 2 1 3 4 5 6 8 8 12 9 8 8
2 3 3 3 3 3 3 3 4 4 4 4 4 4 4 4 4 4 4 4 3 1 1 2 2 2 5 2 3 2 3 4 4 4 3 3 2 4 4 8 11 11 13 13 12 7 8
2 2 3 3 3 3 3 3 4 4 4 4 4 4 4 4 4 4 4 4 1 2 2 1 1 4 4 5 3 2 2 3 5 5 5 5 4 6 6 10 14 15 12 13 13 9 8
2 3 3 3 3 3 3 4 4 4 4 4 4 4 4 4 4 5 4 2 3 4 2 4 4 4 4 2 2 3 2 4 4 5 7 6 7 9 7 6 8 10 11 13 12 8 9
2 2 3 3 3 3 3 4 4 4 4 4 4 4 4 4 4 5 5 3 3 2 5 3 3 3 2 2 5 4 2 6 6 7 6 6 8 6 5 6 7 8 11 12 10 8 9
1 2 3 3 3 3 3 4 4 4 4 4 4 4 4 5 5 4 3 2 1 0 5 4 3 3 3 2 4 4 4 5 6 7 7 8 6 5 6 7 8 7 9 10 11 9 8
1 2 2 2 3 3 4 4 4 4 5 4 4 4 5 5 5 1 2 1 0 0 7 6 5 4 3 3 5 3 3 3 5 6 6 6 5 6 6 7 7 8 6 8 10 11 15
1 1 2 2 2 3 4 4 4 4 4 4 4 4 5 5 3 2 1 1 0 2 13 6 5 1 2 4 4 4 2 3 6 6 6 7 6 7 7 7 6 7 6 7 8 10 10
2 2 2 2 2 3 4 4 4 4 4 4 4 5 5 3 3 1 0 1 2 8 13 7 5 5 5 4 4 4 4 3 3 5 5 6 4 5 6 5 5 5 6 7 7 9 13
2 2 2 2 3 3 4 4 4 4 5 5 5 6 6 2 2 -0 1 2 8 12 6 7 7 5 6 6 6 5 6 6 7 9 8 7 6 5 5 6 5 6 8 12 13 13 14
2 2 2 2 3 3 4 4 4 4 5 5 6 7 5 2 1 0 1 6 12 8 7 5 6 6 7 6 6 6 6 7 6 6 8 9 10 7 6 6 7 7 8 11 16 16 15
2 2 2 2 3 3 4 4 4 4 5 5 6 2 3 2 2 1 4 9 10 7 6 6 6 7 7 6 6 7 7 7 6 6 8 9 9 6 5 5 6 7 9 7 11 11 13
2 2 2 2 3 3 4 4 4 4 5 6 3 1 3 1 1 2 5 9 7 5 5 6 8 7 9 8 8 7 7 6 6 5 5 7 9 7 6 5 5 7 6 10 10 15 17
2 2 2 2 3 3 3 3 4 4 5 6 2 4 2 1 2 4 8 7 6 4 4 6 7 7 7 7 7 8 8 6 6 5 5 6 7 8 6 7 8 7 8 8 9 14 16
2 2 2 2 3 3 3 3 4 5 6 4 3 6 2 2 5 5 6 5 8 5 4 5 5 6 7 7 7 7 8 7 5 5 7 5 7 9 8 6 5 6 7 7 11 14 12
2 2 2 3 3 3 3 3 4 5 5 4 4 4 1 3 7 6 5 5 5 5 5 5 6 5 5 7 8 7 7 5 5 5 6 6 8 10 10 8 6 7 8 8 8 10 13
1 1 2 2 3 2 3 3 4 4 5 4 4 6 3 4 4 5 6 6 6 4 5 5 5 5 6 6 6 7 7 5 5 5 3 4 7 9 13 11 9 10 9 9 10 13 14
2 2 2 2 3 2 3 3 3 4 4 4 3 5 4 6 6 5 5 5 6 7 5 4 5 6 6 7 7 7 6 6 5 5 4 5 9 10 10 9 9 10 10 11 13 11 13
2 2 3 3 3 3 3 3 3 3 4 3 4 5 4 6 4 5 6 6 6 6 6 6 6 5 5 7 6 7 7 6 6 5 6 5 9 9 10 9 10 11 10 10 9 10 10
2 3 4 4 4 3 4 3 3 3 4 2 2 2 4 6 6 6 6 5 6 5 5 4 5 5 6 5 5 4 4 4 5 5 6 6 8 9 13 11 12 14 12 11 10 9 10
2 3 4 4 4 4 4 3 3 2 4 2 2 2 5 7 6 6 5 5 5 5 5 4 4 5 4 3 3 4 4 4 4 5 4 6 7 8 14 12 17 10 7 7 8 9 8
2 3 4 4 4 4 5 4 4 4 4 4 2 3 5 7 5 5 5 5 5 5 5 5 4 3 2 4 6 7 7 6 6 5 5 5 7 9 13 13 12 10 10 9 8 11 8
3 3 4 4 4 4 4 4 4 3 3 4 2 1 3 6 6 5 6 5 6 6 5 4 3 3 3 5 6 9 10 8 9 8 5 5 5 9 9 13 17 12 7 5 6 14 8
3 3 4 4 4 4 4 4 4 4 4 4 2 0 3 6 5 5 6 6 4 5 6 5 4 4 3 6 8 9 9 7 9 10 10 9 9 10 9 11 11 7 6 5 11 13 7
3 4 4 4 4 4 4 4 4 4 4 4 2 0 2 5 4 3 4 4 4 5 7 5 5 4 5 7 7 7 7 7 8 7 9 12 10 14 11 11 14 6 6 10 9 6 6
4 4 4 4 4 4 4 4 4 4 4 4 3 1 1 4 4 3 2 3 3 2 4 4 4 4 4 6 6 6 7 6 7 9 5 10 8 9 8 10 5 4 5 4 5 6 6